Time,TemperatureF,DewpointF,PressureIn,WindDirection,WindDirectionDegrees,WindSpeedMPH,WindSpeedGustMPH,Humidity,HourlyPrecipIn,Conditions,Clouds,dailyrainin,SoftwareType,DateUTC
2013-04-07 00:00:00,51.2,49.8,30.10,SW,225,1.0,7.0,95,0.00,,,0.00,WeatherCatV1.15B25,2013-04-07 07:00:00,
2013-04-07 00:05:00,51.1,49.4,30.10,SW,225,2.0,7.0,94,0.00,,,0.00,WeatherCatV1.15B25,2013-04-07 07:05:00,
2013-04-07 00:10:00,51.1,49.4,30.10,SW,225,2.0,7.0,94,0.00,,,0.00,WeatherCatV1.15B25,2013-04-07 07:10:00,
2013-04-07 00:15:00,51.1,49.4,30.10,SW,225,2.0,7.0,94,0.00,,,0.00,WeatherCatV1.15B25,2013-04-07 07:15:00,
2013-04-07 00:20:00,51.3,49.9,30.10,SSW,202,3.0,8.0,95,0.00,,,0.00,WeatherCatV1.15B25,2013-04-07 07:20:00,
2013-04-07 00:25:00,51.3,49.9,30.10,SSW,202,3.0,8.0,95,0.00,,,0.00,WeatherCatV1.15B25,2013-04-07 07:25:00,
2013-04-07 00:30:00,51.3,49.9,30.10,SSW,202,3.0,8.0,95,0.00,,,0.00,WeatherCatV1.15B25,2013-04-07 07:30:00,
2013-04-07 00:35:00,51.5,49.8,30.10,SW,225,3.0,9.0,94,0.00,,,0.00,WeatherCatV1.15B25,2013-04-07 07:35:00,
2013-04-07 00:40:00,51.5,49.8,30.10,SW,225,3.0,9.0,94,0.00,,,0.00,WeatherCatV1.15B25,2013-04-07 07:40:00,
2013-04-07 00:45:00,51.5,49.8,30.10,SW,225,3.0,9.0,94,0.00,,,0.00,WeatherCatV1.15B25,2013-04-07 07:45:00,
2013-04-07 00:50:00,51.5,49.8,30.10,SW,225,3.0,10.0,94,0.00,,,0.00,WeatherCatV1.15B25,2013-04-07 07:50:00,
2013-04-07 00:55:00,51.5,49.8,30.10,SW,225,3.0,10.0,94,0.00,,,0.00,WeatherCatV1.15B25,2013-04-07 07:55:00,
2013-04-07 01:00:00,51.5,49.8,30.10,SW,225,3.0,10.0,94,0.00,,,0.00,WeatherCatV1.15B25,2013-04-07 08:00:00,
2013-04-07 01:05:00,51.6,49.9,30.10,SW,225,2.0,6.0,94,0.00,,,0.00,WeatherCatV1.15B25,2013-04-07 08:05:00,
2013-04-07 01:10:00,51.6,49.9,30.10,SW,225,2.0,6.0,94,0.00,,,0.00,WeatherCatV1.15B25,2013-04-07 08:10:00,
2013-04-07 01:15:00,51.6,49.9,30.10,SW,225,2.0,6.0,94,0.00,,,0.00,WeatherCatV1.15B25,2013-04-07 08:15:00,
2013-04-07 01:20:00,51.7,50.3,30.10,WSW,248,1.0,7.0,95,0.00,,,0.00,WeatherCatV1.15B25,2013-04-07 08:20:00,
2013-04-07 01:25:00,51.7,50.3,30.10,WSW,248,1.0,7.0,95,0.00,,,0.00,WeatherCatV1.15B25,2013-04-07 08:25:00,
2013-04-07 01:30:00,51.7,50.3,30.10,WSW,248,1.0,7.0,95,0.00,,,0.00,WeatherCatV1.15B25,2013-04-07 08:30:00,
2013-04-07 01:35:00,51.5,50.1,30.10,SW,225,1.0,8.0,95,0.00,,,0.00,WeatherCatV1.15B25,2013-04-07 08:35:00,
2013-04-07 01:40:00,51.5,50.1,30.10,SW,225,1.0,8.0,95,0.00,,,0.00,WeatherCatV1.15B25,2013-04-07 08:40:00,
2013-04-07 01:45:00,51.5,50.1,30.10,SW,225,1.0,8.0,95,0.00,,,0.00,WeatherCatV1.15B25,2013-04-07 08:45:00,
2013-04-07 01:50:00,51.7,50.6,30.10,SW,225,1.0,6.0,96,0.00,,,0.00,WeatherCatV1.15B25,2013-04-07 08:50:00,
2013-04-07 01:55:00,51.7,50.6,30.10,SW,225,1.0,6.0,96,0.00,,,0.00,WeatherCatV1.15B25,2013-04-07 08:55:00,
2013-04-07 02:00:00,51.7,50.6,30.10,SW,225,1.0,6.0,96,0.00,,,0.00,WeatherCatV1.15B25,2013-04-07 09:00:00,
2013-04-07 02:05:00,51.7,50.6,30.10,SW,225,1.0,5.0,96,0.00,,,0.00,WeatherCatV1.15B25,2013-04-07 09:05:00,
2013-04-07 02:10:00,51.7,50.6,30.10,SW,225,1.0,5.0,96,0.00,,,0.00,WeatherCatV1.15B25,2013-04-07 09:10:00,
2013-04-07 02:15:00,51.7,50.6,30.10,SW,225,1.0,5.0,96,0.00,,,0.00,WeatherCatV1.15B25,2013-04-07 09:15:00,
2013-04-07 02:20:00,51.6,50.5,30.09,SW,225,1.0,7.0,96,0.00,,,0.00,WeatherCatV1.15B25,2013-04-07 09:20:00,
2013-04-07 02:25:00,51.6,50.5,30.09,SW,225,1.0,7.0,96,0.00,,,0.00,WeatherCatV1.15B25,2013-04-07 09:25:00,
2013-04-07 02:30:00,51.6,50.5,30.09,SW,225,1.0,7.0,96,0.00,,,0.00,WeatherCatV1.15B25,2013-04-07 09:30:00,
2013-04-07 02:35:00,51.6,50.5,30.09,SW,225,1.0,7.0,96,0.00,,,0.00,WeatherCatV1.15B25,2013-04-07 09:35:00,
2013-04-07 02:40:00,51.6,50.8,30.09,WSW,248,1.0,5.0,97,0.00,,,0.00,WeatherCatV1.15B25,2013-04-07 09:40:00,
2013-04-07 02:45:00,51.6,50.8,30.09,WSW,248,1.0,5.0,97,0.00,,,0.00,WeatherCatV1.15B25,2013-04-07 09:45:00,
2013-04-07 02:50:00,51.6,50.8,30.09,WSW,248,1.0,5.0,97,0.00,,,0.00,WeatherCatV1.15B25,2013-04-07 09:50:00,
2013-04-07 02:55:00,51.6,50.8,30.09,North,0,1.0,9.0,97,0.00,,,0.00,WeatherCatV1.15B25,2013-04-07 09:55:00,
2013-04-07 03:00:00,51.6,50.8,30.09,North,0,1.0,9.0,97,0.00,,,0.00,WeatherCatV1.15B25,2013-04-07 10:00:00,
2013-04-07 03:05:00,51.6,50.8,30.08,East,90,0.0,6.0,97,0.00,,,0.00,WeatherCatV1.15B25,2013-04-07 10:05:00,
2013-04-07 03:10:00,51.6,50.8,30.08,East,90,0.0,6.0,97,0.00,,,0.00,WeatherCatV1.15B25,2013-04-07 10:10:00,
2013-04-07 03:15:00,51.6,50.8,30.08,East,90,0.0,6.0,97,0.00,,,0.00,WeatherCatV1.15B25,2013-04-07 10:15:00,
2013-04-07 03:20:00,51.6,50.8,30.08,NW,315,1.0,4.0,97,0.00,,,0.00,WeatherCatV1.15B25,2013-04-07 10:20:00,
2013-04-07 03:25:00,51.6,50.8,30.08,NW,315,1.0,4.0,97,0.00,,,0.00,WeatherCatV1.15B25,2013-04-07 10:25:00,
2013-04-07 03:30:00,51.6,50.8,30.08,NW,315,1.0,4.0,97,0.00,,,0.00,WeatherCatV1.15B25,2013-04-07 10:30:00,
2013-04-07 03:35:00,51.6,50.8,30.08,NW,315,1.0,7.0,97,0.00,,,0.00,WeatherCatV1.15B25,2013-04-07 10:35:00,
2013-04-07 03:40:00,51.6,50.8,30.08,NW,315,1.0,7.0,97,0.00,,,0.00,WeatherCatV1.15B25,2013-04-07 10:40:00,
2013-04-07 03:45:00,51.6,50.8,30.08,NW,315,1.0,7.0,97,0.00,,,0.00,WeatherCatV1.15B25,2013-04-07 10:45:00,
2013-04-07 03:50:00,51.6,50.8,30.06,NNW,338,1.0,5.0,97,0.00,,,0.00,WeatherCatV1.15B25,2013-04-07 10:50:00,
2013-04-07 03:55:00,51.6,50.8,30.06,NNW,338,1.0,5.0,97,0.00,,,0.00,WeatherCatV1.15B25,2013-04-07 10:55:00,
2013-04-07 04:00:00,51.6,50.8,30.06,NNW,338,1.0,5.0,97,0.00,,,0.00,WeatherCatV1.15B25,2013-04-07 11:00:00,
2013-04-07 04:05:00,51.3,50.5,30.06,SW,225,1.0,6.0,97,0.00,,,0.00,WeatherCatV1.15B25,2013-04-07 11:05:00,
2013-04-07 04:10:00,51.3,50.5,30.06,SW,225,1.0,6.0,97,0.00,,,0.00,WeatherCatV1.15B25,2013-04-07 11:10:00,
2013-04-07 04:15:00,51.3,50.5,30.06,SW,225,1.0,6.0,97,0.00,,,0.00,WeatherCatV1.15B25,2013-04-07 11:15:00,
2013-04-07 04:20:00,51.1,50.3,30.05,SW,225,1.0,5.0,97,0.00,,,0.00,WeatherCatV1.15B25,2013-04-07 11:20:00,
2013-04-07 04:25:00,51.1,50.3,30.05,SW,225,1.0,5.0,97,0.00,,,0.00,WeatherCatV1.15B25,2013-04-07 11:25:00,
2013-04-07 04:30:00,51.1,50.3,30.05,SW,225,1.0,5.0,97,0.00,,,0.00,WeatherCatV1.15B25,2013-04-07 11:30:00,
2013-04-07 04:35:00,51.2,50.4,30.06,WSW,248,1.0,5.0,97,0.00,,,0.00,WeatherCatV1.15B25,2013-04-07 11:35:00,
2013-04-07 04:40:00,51.2,50.4,30.06,WSW,248,1.0,5.0,97,0.00,,,0.00,WeatherCatV1.15B25,2013-04-07 11:40:00,
2013-04-07 04:45:00,51.2,50.4,30.06,WSW,248,1.0,5.0,97,0.00,,,0.00,WeatherCatV1.15B25,2013-04-07 11:45:00,
2013-04-07 04:50:00,51.3,50.5,30.06,SW,225,1.0,5.0,97,0.00,,,0.00,WeatherCatV1.15B25,2013-04-07 11:50:00,
2013-04-07 04:55:00,51.3,50.5,30.06,SW,225,1.0,5.0,97,0.00,,,0.00,WeatherCatV1.15B25,2013-04-07 11:55:00,
2013-04-07 05:09:00,51.3,50.5,30.06,SW,225,1.0,5.0,97,0.00,,,0.00,WeatherCatV1.15B25,2013-04-07 12:09:00,
2013-04-07 05:24:00,51.3,50.5,30.06,SW,231,0.0,0.0,97,0.00,,,0.00,WeatherCatV1.15B25,2013-04-07 12:24:00,
2013-04-07 05:39:00,51.4,50.6,30.06,WSW,240,1.0,1.0,97,0.00,,,0.00,WeatherCatV1.15B25,2013-04-07 12:39:00,
2013-04-07 05:54:00,51.4,50.9,30.05,East,80,0.0,1.0,98,0.00,,,0.00,WeatherCatV1.15B25,2013-04-07 12:54:00,
2013-04-07 06:09:00,51.5,51.0,30.05,ENE,78,0.0,0.0,98,0.00,,,0.00,WeatherCatV1.15B25,2013-04-07 13:09:00,
2013-04-07 06:24:00,51.8,51.3,30.05,ENE,78,0.0,0.0,98,0.00,,,0.00,WeatherCatV1.15B25,2013-04-07 13:24:00,
2013-04-07 06:39:00,51.9,51.4,30.05,ENE,78,0.0,0.0,98,0.00,,,0.00,WeatherCatV1.15B25,2013-04-07 13:39:00,
2013-04-07 06:54:00,52.0,51.5,30.06,ENE,62,0.0,0.0,98,0.00,,,0.00,WeatherCatV1.15B25,2013-04-07 13:54:00,
2013-04-07 07:09:00,52.1,51.6,30.06,ENE,62,0.0,1.0,98,0.00,,,0.00,WeatherCatV1.15B25,2013-04-07 14:09:00,
2013-04-07 07:24:00,52.9,52.3,30.06,NE,39,3.0,4.0,98,0.00,,,0.00,WeatherCatV1.15B25,2013-04-07 14:24:00,
2013-04-07 07:39:00,53.4,53.1,30.06,NE,56,0.0,2.0,99,0.00,,,0.00,WeatherCatV1.15B25,2013-04-07 14:39:00,
2013-04-07 07:54:00,53.6,53.0,30.06,NE,56,0.0,2.0,98,0.00,,,0.00,WeatherCatV1.15B25,2013-04-07 14:54:00,
2013-04-07 08:09:00,53.1,52.3,30.06,North,9,0.0,3.0,97,0.00,,,0.00,WeatherCatV1.15B25,2013-04-07 15:09:00,
2013-04-07 08:24:00,52.8,52.0,30.05,NNE,22,0.0,6.0,97,0.00,,,0.00,WeatherCatV1.15B25,2013-04-07 15:24:00,
2013-04-07 08:39:00,52.9,52.1,30.05,NNW,330,0.0,3.0,97,0.00,,,0.00,WeatherCatV1.15B25,2013-04-07 15:39:00,
2013-04-07 08:54:00,53.1,52.3,30.05,ENE,71,4.0,12.0,97,0.00,,,0.00,WeatherCatV1.15B25,2013-04-07 15:54:00,
2013-04-07 09:09:00,53.1,52.3,30.04,North,350,1.0,5.0,97,0.00,,,0.00,WeatherCatV1.15B25,2013-04-07 16:09:00,
2013-04-07 09:24:00,53.5,52.9,30.03,WSW,238,2.0,5.0,98,0.00,,,0.00,WeatherCatV1.15B25,2013-04-07 16:24:00,
2013-04-07 09:39:00,53.8,53.0,30.03,SW,229,2.0,3.0,97,0.00,,,0.00,WeatherCatV1.15B25,2013-04-07 16:39:00,
2013-04-07 09:54:00,54.0,53.4,30.04,NE,34,4.0,8.0,98,0.00,,,0.00,WeatherCatV1.15B25,2013-04-07 16:54:00,
2013-04-07 10:09:00,53.5,52.7,30.05,NE,41,0.0,2.0,97,0.00,,,0.00,WeatherCatV1.15B25,2013-04-07 17:09:00,
2013-04-07 10:24:00,53.5,52.9,30.06,NE,53,0.0,4.0,98,0.00,,,0.00,WeatherCatV1.15B25,2013-04-07 17:24:00,
2013-04-07 10:39:00,53.4,52.8,30.05,ESE,121,0.0,4.0,98,0.00,,,0.00,WeatherCatV1.15B25,2013-04-07 17:39:00,
2013-04-07 10:54:00,53.6,53.0,30.05,NW,315,1.0,6.0,98,0.00,,,0.00,WeatherCatV1.15B25,2013-04-07 17:54:00,
2013-04-07 11:09:00,54.0,53.4,30.05,NNE,30,0.0,5.0,98,0.00,,,0.00,WeatherCatV1.15B25,2013-04-07 18:09:00,
2013-04-07 11:24:00,54.6,54.0,30.05,WNW,288,2.0,6.0,98,0.00,,,0.00,WeatherCatV1.15B25,2013-04-07 18:24:00,
2013-04-07 11:39:00,54.7,54.1,30.05,West,279,3.0,5.0,98,0.00,,,0.00,WeatherCatV1.15B25,2013-04-07 18:39:00,
2013-04-07 11:54:00,55.2,54.6,30.04,SW,228,2.0,4.0,98,0.00,,,0.00,WeatherCatV1.15B25,2013-04-07 18:54:00,
2013-04-07 12:09:00,55.6,55.0,30.03,WSW,240,0.0,4.0,98,0.00,,,0.00,WeatherCatV1.15B25,2013-04-07 19:09:00,
2013-04-07 12:24:00,57.0,56.4,30.02,NW,304,1.0,6.0,98,0.00,,,0.00,WeatherCatV1.15B25,2013-04-07 19:24:00,
2013-04-07 12:39:00,58.2,55.9,30.02,WNW,289,5.0,7.0,92,0.00,,,0.00,WeatherCatV1.15B25,2013-04-07 19:39:00,
2013-04-07 12:54:00,59.0,54.8,30.02,NE,55,1.0,6.0,86,0.00,,,0.00,WeatherCatV1.15B25,2013-04-07 19:54:00,
2013-04-07 13:09:00,58.3,52.8,30.01,SW,215,7.0,9.0,82,0.00,,,0.00,WeatherCatV1.15B25,2013-04-07 20:09:00,
2013-04-07 13:24:00,58.7,53.5,30.00,NW,304,4.0,11.0,83,0.00,,,0.00,WeatherCatV1.15B25,2013-04-07 20:24:00,
2013-04-07 13:39:00,59.4,54.9,30.00,WSW,244,7.0,7.0,85,0.00,,,0.00,WeatherCatV1.15B25,2013-04-07 20:39:00,
2013-04-07 13:54:00,59.6,54.4,29.99,NW,311,2.0,6.0,83,0.00,,,0.00,WeatherCatV1.15B25,2013-04-07 20:54:00,
2013-04-07 14:09:00,59.3,55.1,29.99,SW,226,2.0,6.0,86,0.00,,,0.00,WeatherCatV1.15B25,2013-04-07 21:09:00,
2013-04-07 14:24:00,59.1,54.3,29.98,ESE,115,0.0,8.0,84,0.00,,,0.00,WeatherCatV1.15B25,2013-04-07 21:24:00,
2013-04-07 14:39:00,60.0,54.5,29.97,SSW,205,3.0,4.0,82,0.00,,,0.00,WeatherCatV1.15B25,2013-04-07 21:39:00,
2013-04-07 14:54:00,60.1,53.9,29.97,SE,127,0.0,2.0,80,0.00,,,0.00,WeatherCatV1.15B25,2013-04-07 21:54:00,
2013-04-07 15:09:00,59.1,53.6,29.96,SSE,148,1.0,6.0,82,0.00,,,0.00,WeatherCatV1.15B25,2013-04-07 22:09:00,
2013-04-07 15:24:00,59.3,53.5,29.97,SSW,197,3.0,6.0,81,0.00,,,0.00,WeatherCatV1.15B25,2013-04-07 22:24:00,
2013-04-07 15:39:00,58.2,52.1,29.95,WSW,241,7.0,11.0,80,0.00,,,0.00,WeatherCatV1.15B25,2013-04-07 22:39:00,
2013-04-07 15:54:00,57.8,51.7,29.96,ESE,123,4.0,11.0,80,0.00,,,0.00,WeatherCatV1.15B25,2013-04-07 22:54:00,
2013-04-07 16:09:00,57.7,50.9,29.95,South,183,1.0,6.0,78,0.00,,,0.00,WeatherCatV1.15B25,2013-04-07 23:09:00,
2013-04-07 16:24:00,57.3,50.2,29.95,South,171,2.0,5.0,77,0.00,,,0.00,WeatherCatV1.15B25,2013-04-07 23:24:00,
2013-04-07 16:39:00,56.6,49.8,29.94,WSW,238,5.0,6.0,78,0.00,,,0.00,WeatherCatV1.15B25,2013-04-07 23:39:00,
2013-04-07 16:54:00,55.9,50.2,29.93,WSW,253,0.0,8.0,81,0.00,,,0.00,WeatherCatV1.15B25,2013-04-07 23:54:00,
2013-04-07 17:09:00,55.6,50.2,29.93,SSW,207,0.0,4.0,82,0.00,,,0.00,WeatherCatV1.15B25,2013-04-08 00:09:00,
2013-04-07 17:24:00,55.2,50.8,29.92,West,265,3.0,4.0,85,0.00,,,0.00,WeatherCatV1.15B25,2013-04-08 00:24:00,
2013-04-07 17:39:00,55.0,49.9,29.92,South,186,3.0,11.0,83,0.00,,,0.00,WeatherCatV1.15B25,2013-04-08 00:39:00,
2013-04-07 17:54:00,54.3,48.9,29.91,SW,217,4.0,12.0,82,0.00,,,0.00,WeatherCatV1.15B25,2013-04-08 00:54:00,
2013-04-07 18:09:00,54.2,49.8,29.91,WNW,283,1.0,8.0,85,0.00,,,0.00,WeatherCatV1.15B25,2013-04-08 01:09:00,
2013-04-07 18:24:00,53.8,48.4,29.91,North,355,7.0,7.0,82,0.00,,,0.00,WeatherCatV1.15B25,2013-04-08 01:24:00,
2013-04-07 18:39:00,52.9,48.2,29.91,SSW,209,2.0,6.0,84,0.00,,,0.00,WeatherCatV1.15B25,2013-04-08 01:39:00,
2013-04-07 18:54:00,52.6,48.5,29.91,ENE,63,0.0,2.0,86,0.00,,,0.00,WeatherCatV1.15B25,2013-04-08 01:54:00,
2013-04-07 19:09:00,52.3,48.2,29.91,NNW,347,1.0,4.0,86,0.00,,,0.00,WeatherCatV1.15B25,2013-04-08 02:09:00,
2013-04-07 19:24:00,51.9,47.5,29.90,South,182,4.0,8.0,85,0.00,,,0.00,WeatherCatV1.15B25,2013-04-08 02:24:00,
2013-04-07 19:39:00,51.8,47.4,29.90,NNW,346,2.0,2.0,85,0.00,,,0.00,WeatherCatV1.15B25,2013-04-08 02:39:00,
2013-04-07 19:54:00,51.8,47.7,29.88,NNW,327,4.0,4.0,86,0.00,,,0.00,WeatherCatV1.15B25,2013-04-08 02:54:00,
2013-04-07 20:09:00,51.7,47.6,29.88,WNW,296,2.0,6.0,86,0.00,,,0.00,WeatherCatV1.15B25,2013-04-08 03:09:00,
2013-04-07 20:24:00,51.7,48.3,29.88,NNW,331,1.0,3.0,88,0.00,,,0.00,WeatherCatV1.15B25,2013-04-08 03:24:00,
2013-04-07 20:39:00,51.3,48.8,29.88,North,355,1.0,2.0,91,0.00,,,0.01,WeatherCatV1.15B25,2013-04-08 03:39:00,
2013-04-07 21:09:00,50.5,49.1,29.86,WNW,282,4.0,9.0,95,0.04,,,0.03,WeatherCatV1.15B25,2013-04-08 04:09:00,
2013-04-07 21:24:00,50.4,49.0,29.85,NNW,334,1.0,4.0,95,0.00,,,0.04,WeatherCatV1.15B25,2013-04-08 04:24:00,
2013-04-07 21:39:00,50.7,49.6,29.84,WNW,298,0.0,4.0,96,0.00,,,0.04,WeatherCatV1.15B25,2013-04-08 04:39:00,
2013-04-07 21:54:00,51.4,50.6,29.83,NE,41,0.0,1.0,97,0.00,,,0.05,WeatherCatV1.15B25,2013-04-08 04:54:00,
2013-04-07 22:09:00,51.3,50.2,29.82,WSW,248,0.0,9.0,96,0.04,,,0.06,WeatherCatV1.15B25,2013-04-08 05:09:00,
2013-04-07 22:24:00,51.3,50.5,29.80,ENE,69,3.0,9.0,97,0.06,,,0.08,WeatherCatV1.15B25,2013-04-08 05:24:00,
2013-04-07 22:39:00,51.6,50.8,29.79,NNW,329,4.0,9.0,97,0.05,,,0.09,WeatherCatV1.15B25,2013-04-08 05:39:00,
2013-04-07 22:54:00,51.6,50.8,29.78,NNW,344,9.0,18.0,97,0.00,,,0.09,WeatherCatV1.15B25,2013-04-08 05:54:00,
2013-04-07 23:09:00,51.5,50.7,29.77,ESE,117,7.0,17.0,97,0.00,,,0.10,WeatherCatV1.15B25,2013-04-08 06:09:00,
2013-04-07 23:24:00,51.1,50.3,29.78,NE,38,5.0,10.0,97,0.00,,,0.10,WeatherCatV1.15B25,2013-04-08 06:24:00,
2013-04-07 23:35:00,50.8,49.7,29.77,West,269,4.0,9.0,96,0.00,,,0.00,WeatherCatV1.15B25,2013-04-08 06:35:00,
2013-04-07 23:39:00,50.7,49.6,29.78,SW,218,7.0,10.0,96,0.00,,,0.10,WeatherCatV1.15B25,2013-04-08 06:39:00,
2013-04-07 23:40:00,50.7,49.6,29.78,WSW,255,5.0,8.0,96,0.00,,,0.00,WeatherCatV1.15B25,2013-04-08 06:40:00,
2013-04-07 23:45:00,50.5,49.1,29.78,West,273,5.0,13.0,95,0.00,,,0.00,WeatherCatV1.15B25,2013-04-08 06:45:00,
2013-04-07 23:50:00,50.5,49.1,29.78,SSW,202,5.0,18.0,95,0.00,,,0.00,WeatherCatV1.15B25,2013-04-08 06:50:00,
2013-04-07 23:55:00,50.5,49.1,29.78,SSW,202,5.0,18.0,95,0.00,,,0.00,WeatherCatV1.15B25,2013-04-08 06:55:00,